Location: Foots Cray
(51.4000°N, 0.1167°E)
Time: 00:52:04
(UTC+00:00)

Terra - Pass Details

Date: 15 May 2026
Orbit: 689 x 690 km, 97.9° (Epoch: 9 June)

Event Time Altitude Azimuth Distance (km) Brightness Sun altitude
Rises 21:25:27 0° 206° (SSW) 3,051 4.8 -12.3°
Reaches altitude 10° 21:28:16 10° 224° (SW) 2,141 4.2 -12.5°
Maximum altitude 21:31:37 19° 270° (W) 1,608 4.1 -12.8°
Drops below altitude 10° 21:35:01 10° 317° (NW) 2,154 5.8 -13.1°
Sets 21:37:52 0° 335° (NNW) 3,077 7.0 -13.4°
